Wetterdaten: Donnerstag, 09.01.2014
Datum Zeit Temperatur Luftfeuchte Luftdruck Regen Wind Richtung Richtung Taupunkt Windchill Windben
09.01.2014 00:00 1,6 C 92 % 1021,1 hPa 0,0 l/m 0,0 km/h (0 Bft) NO 45 0,4 C 1,7 C 0,0 km/h (0 Bft)
09.01.2014 00:05 1,4 C 92 % 1021,1 hPa 0,0 l/m 0,0 km/h (0 Bft) NO 45 0,2 C 1,6 C 0,0 km/h (0 Bft)
09.01.2014 00:10 1,4 C 92 % 1021,1 hPa 0,0 l/m 0,0 km/h (0 Bft) NO 45 0,2 C 1,6 C 0,0 km/h (0 Bft)
09.01.2014 00:15 1,7 C 92 % 1021,1 hPa 0,0 l/m 0,0 km/h (0 Bft) NO 45 0,5 C 1,6 C 0,0 km/h (0 Bft)
09.01.2014 00:20 1,5 C 91 % 1021,1 hPa 0,0 l/m 0,3 km/h (0 Bft) O-NO 67 0,2 C 1,6 C 2,9 km/h (1 Bft)
09.01.2014 00:25 1,8 C 92 % 1020,9 hPa 0,0 l/m 0,6 km/h (0 Bft) O-NO 67 0,6 C 1,8 C 0,0 km/h (0 Bft)
09.01.2014 00:30 1,7 C 91 % 1020,9 hPa 0,0 l/m 0,6 km/h (0 Bft) O 90 0,4 C 1,9 C 0,0 km/h (0 Bft)
09.01.2014 00:35 1,6 C 91 % 1020,9 hPa 0,0 l/m 0,0 km/h (0 Bft) O-NO 67 0,3 C 1,9 C 0,0 km/h (0 Bft)
09.01.2014 00:40 1,3 C 91 % 1020,9 hPa 0,0 l/m 0,0 km/h (0 Bft) O 90 -0,0 C 1,8 C 0,0 km/h (0 Bft)
09.01.2014 00:45 1,3 C 91 % 1020,7 hPa 0,0 l/m 0,0 km/h (0 Bft) O-NO 67 -0,0 C 1,6 C 0,0 km/h (0 Bft)
09.01.2014 00:50 0,9 C 91 % 1020,7 hPa 0,0 l/m 0,0 km/h (0 Bft) NO 45 -0,4 C 1,3 C 0,0 km/h (0 Bft)
09.01.2014 00:55 0,8 C 91 % 1020,7 hPa 0,0 l/m 0,0 km/h (0 Bft) NO 45 -0,5 C 1,1 C 0,0 km/h (0 Bft)
09.01.2014 01:00 0,7 C 91 % 1020,7 hPa 0,0 l/m 0,0 km/h (0 Bft) NO 45 -0,6 C 1,0 C 0,0 km/h (0 Bft)
09.01.2014 01:05 0,9 C 91 % 1020,6 hPa 0,0 l/m 0,0 km/h (0 Bft) O-SO 112 -0,4 C 1,0 C 0,0 km/h (0 Bft)
09.01.2014 01:10 0,9 C 91 % 1020,6 hPa 0,0 l/m 0,2 km/h (0 Bft) O-SO 112 -0,4 C 1,1 C 0,0 km/h (0 Bft)
09.01.2014 01:15 1,0 C 91 % 1020,6 hPa 0,0 l/m 0,0 km/h (0 Bft) NO 45 -0,3 C 1,2 C 0,0 km/h (0 Bft)
09.01.2014 01:20 1,3 C 92 % 1020,6 hPa 0,0 l/m 1,0 km/h (0 Bft) SO 135 0,1 C 1,4 C 5,0 km/h (1 Bft)
09.01.2014 01:25 1,7 C 92 % 1020,6 hPa 0,0 l/m 1,1 km/h (1 Bft) O-NO 67 0,5 C 1,7 C 1,8 km/h (1 Bft)
09.01.2014 01:30 1,4 C 92 % 1020,6 hPa 0,0 l/m 0,3 km/h (0 Bft) NO 45 0,2 C 2,0 C 0,0 km/h (0 Bft)
09.01.2014 01:35 1,2 C 92 % 1020,6 hPa 0,0 l/m 0,2 km/h (0 Bft) NO 45 0,0 C 2,0 C 0,0 km/h (0 Bft)
09.01.2014 01:40 1,5 C 92 % 1020,6 hPa 0,0 l/m 0,3 km/h (0 Bft) NO 45 0,3 C 1,8 C 0,0 km/h (0 Bft)
09.01.2014 01:45 1,3 C 91 % 1020,7 hPa 0,0 l/m 0,6 km/h (0 Bft) NO 45 -0,0 C 1,7 C 2,9 km/h (1 Bft)
09.01.2014 01:50 1,2 C 91 % 1020,7 hPa 0,0 l/m 0,5 km/h (0 Bft) NO 45 -0,1 C 1,6 C 0,0 km/h (0 Bft)
09.01.2014 01:55 1,4 C 91 % 1020,7 hPa 0,0 l/m 0,3 km/h (0 Bft) NO 45 0,1 C 1,4 C 0,0 km/h (0 Bft)
09.01.2014 02:00 1,6 C 91 % 1020,7 hPa 0,0 l/m 0,2 km/h (0 Bft) NO 45 0,3 C 1,3 C 0,0 km/h (0 Bft)
09.01.2014 02:05 1,6 C 91 % 1020,7 hPa 0,0 l/m 0,2 km/h (0 Bft) NO 45 0,3 C 1,2 C 0,0 km/h (0 Bft)
09.01.2014 02:10 1,1 C 91 % 1020,7 hPa 0,0 l/m 0,0 km/h (0 Bft) NO 45 -0,2 C 1,2 C 0,0 km/h (0 Bft)
09.01.2014 02:15 0,9 C 91 % 1020,7 hPa 0,0 l/m 0,0 km/h (0 Bft) NO 45 -0,4 C 1,0 C 0,0 km/h (0 Bft)
09.01.2014 02:20 0,6 C 90 % 1020,7 hPa 0,0 l/m 0,0 km/h (0 Bft) NO 45 -0,8 C 0,7 C 0,0 km/h (0 Bft)
09.01.2014 02:25 0,6 C 90 % 1020,2 hPa 0,0 l/m 0,0 km/h (0 Bft) NO 45 -0,8 C 0,6 C 0,0 km/h (0 Bft)
09.01.2014 02:30 0,4 C 90 % 1020,2 hPa 0,0 l/m 0,0 km/h (0 Bft) NO 45 -1,0 C 0,6 C 0,0 km/h (0 Bft)
09.01.2014 02:35 0,4 C 90 % 1020,2 hPa 0,0 l/m 0,2 km/h (0 Bft) N-NW 337 -1,0 C 0,5 C 0,0 km/h (0 Bft)
09.01.2014 02:40 0,2 C 90 % 1020,2 hPa 0,0 l/m 0,2 km/h (0 Bft) NO 45 -1,2 C 0,4 C 0,0 km/h (0 Bft)
09.01.2014 02:45 0,1 C 90 % 1020,1 hPa 0,0 l/m 0,0 km/h (0 Bft) NO 45 -1,3 C 0,3 C 0,0 km/h (0 Bft)
09.01.2014 02:50 0,3 C 91 % 1020,1 hPa 0,0 l/m 0,0 km/h (0 Bft) N-NO 22 -1,0 C 0,3 C 0,0 km/h (0 Bft)
09.01.2014 02:55 0,4 C 91 % 1020,1 hPa 0,0 l/m 0,0 km/h (0 Bft) N-NO 22 -0,9 C 0,3 C 0,0 km/h (0 Bft)
09.01.2014 03:00 0,7 C 91 % 1020,1 hPa 0,0 l/m 0,0 km/h (0 Bft) N 360 -0,6 C 0,3 C 0,0 km/h (0 Bft)
09.01.2014 03:05 0,5 C 91 % 1020,0 hPa 0,0 l/m 0,0 km/h (0 Bft) NO 45 -0,8 C 0,4 C 0,0 km/h (0 Bft)
09.01.2014 03:10 0,4 C 91 % 1020,0 hPa 0,0 l/m 0,0 km/h (0 Bft) NO 45 -0,9 C 0,4 C 0,0 km/h (0 Bft)
09.01.2014 03:15 0,7 C 91 % 1020,0 hPa 0,0 l/m 0,2 km/h (0 Bft) NO 45 -0,6 C 0,4 C 1,9 km/h (1 Bft)
09.01.2014 03:20 0,6 C 91 % 1020,0 hPa 0,0 l/m 0,2 km/h (0 Bft) NO 45 -0,7 C 0,4 C 0,0 km/h (0 Bft)
09.01.2014 03:25 0,4 C 91 % 1019,8 hPa 0,0 l/m 0,2 km/h (0 Bft) O-NO 67 -0,9 C 0,4 C 0,0 km/h (0 Bft)
09.01.2014 03:30 0,2 C 91 % 1019,8 hPa 0,0 l/m 0,0 km/h (0 Bft) O-NO 67 -1,1 C 0,3 C 0,0 km/h (0 Bft)
09.01.2014 03:35 0,2 C 91 % 1019,8 hPa 0,0 l/m 0,0 km/h (0 Bft) N-NW 337 -1,1 C 0,2 C 0,0 km/h (0 Bft)
09.01.2014 03:40 0,2 C 91 % 1019,8 hPa 0,0 l/m 0,0 km/h (0 Bft) NO 45 -1,1 C 0,2 C 0,0 km/h (0 Bft)
09.01.2014 03:45 0,2 C 91 % 1019,6 hPa 0,0 l/m 0,0 km/h (0 Bft) N-NW 337 -1,1 C 0,1 C 0,0 km/h (0 Bft)
09.01.2014 03:50 0,2 C 91 % 1019,6 hPa 0,0 l/m 0,0 km/h (0 Bft) NO 45 -1,1 C 0,1 C 0,0 km/h (0 Bft)
09.01.2014 03:55 0,1 C 91 % 1019,6 hPa 0,0 l/m 0,0 km/h (0 Bft) NO 45 -1,2 C 0,1 C 0,0 km/h (0 Bft)
09.01.2014 04:00 0,2 C 91 % 1019,6 hPa 0,0 l/m 0,0 km/h (0 Bft) W-NW 292 -1,1 C 0,2 C 0,0 km/h (0 Bft)
09.01.2014 04:05 0,1 C 91 % 1019,3 hPa 0,0 l/m 0,2 km/h (0 Bft) W 270 -1,2 C 0,2 C 2,1 km/h (1 Bft)
09.01.2014 04:10 -0,1 C 91 % 1019,3 hPa 0,0 l/m 0,2 km/h (0 Bft) S 180 -1,4 C 0,2 C 0,0 km/h (0 Bft)
09.01.2014 04:15 0,0 C 91 % 1019,3 hPa 0,0 l/m 0,3 km/h (0 Bft) SO 135 -1,3 C 0,2 C 0,0 km/h (0 Bft)
09.01.2014 04:20 -0,1 C 91 % 1019,3 hPa 0,0 l/m 0,5 km/h (0 Bft) W-SW 247 -1,4 C 0,2 C 0,0 km/h (0 Bft)
09.01.2014 04:25 0,1 C 91 % 1019,0 hPa 0,0 l/m 0,3 km/h (0 Bft) W-NW 292 -1,2 C 0,2 C 0,0 km/h (0 Bft)
09.01.2014 04:30 0,2 C 91 % 1019,0 hPa 0,0 l/m 0,5 km/h (0 Bft) W 270 -1,1 C 0,3 C 0,0 km/h (0 Bft)
09.01.2014 04:35 0,2 C 91 % 1019,0 hPa 0,0 l/m 0,6 km/h (0 Bft) SO 135 -1,1 C 0,4 C 0,0 km/h (0 Bft)
09.01.2014 04:40 0,1 C 91 % 1019,0 hPa 0,0 l/m 0,5 km/h (0 Bft) O-SO 112 -1,2 C 0,3 C 0,0 km/h (0 Bft)
09.01.2014 04:45 0,2 C 91 % 1018,6 hPa 0,0 l/m 0,3 km/h (0 Bft) O-SO 112 -1,1 C 0,3 C 0,0 km/h (0 Bft)
09.01.2014 04:50 0,4 C 91 % 1018,6 hPa 0,0 l/m 0,3 km/h (0 Bft) S-SO 157 -0,9 C 0,4 C 0,0 km/h (0 Bft)
09.01.2014 04:55 0,6 C 91 % 1018,6 hPa 0,0 l/m 0,0 km/h (0 Bft) SW 225 -0,7 C 0,5 C 0,0 km/h (0 Bft)
09.01.2014 05:00 0,6 C 91 % 1018,6 hPa 0,0 l/m 0,2 km/h (0 Bft) O 90 -0,7 C 0,9 C 0,0 km/h (0 Bft)
09.01.2014 05:05 0,6 C 91 % 1018,2 hPa 0,0 l/m 0,2 km/h (0 Bft) W-SW 247 -0,7 C 1,0 C 1,8 km/h (1 Bft)
09.01.2014 05:08 1,0 C 91 % 1018,2 hPa 0,0 l/m 0,2 km/h (0 Bft) SW 225 -0,3 C 1,1 C 0,0 km/h (0 Bft)
09.01.2014 05:10 1,0 C 91 % 1018,2 hPa 0,0 l/m 0,2 km/h (0 Bft) SW 225 -0,3 C 1,1 C 0,0 km/h (0 Bft)
09.01.2014 05:15 1,3 C 91 % 1018,2 hPa 0,0 l/m 0,0 km/h (0 Bft) SW 225 -0,0 C 1,1 C 0,0 km/h (0 Bft)
09.01.2014 05:20 1,4 C 91 % 1018,2 hPa 0,0 l/m 0,2 km/h (0 Bft) NW 315 0,1 C 1,1 C 0,0 km/h (0 Bft)
09.01.2014 05:25 1,4 C 91 % 1018,1 hPa 0,0 l/m 0,3 km/h (0 Bft) W-NW 292 0,1 C 1,3 C 0,0 km/h (0 Bft)
09.01.2014 05:30 1,5 C 90 % 1018,1 hPa 0,0 l/m 0,0 km/h (0 Bft) W 270 0,0 C 1,2 C 0,0 km/h (0 Bft)
09.01.2014 05:35 1,2 C 89 % 1018,1 hPa 0,0 l/m 0,0 km/h (0 Bft) NW 315 -0,4 C 1,1 C 0,0 km/h (0 Bft)
09.01.2014 05:40 1,2 C 89 % 1018,1 hPa 0,0 l/m 0,2 km/h (0 Bft) N-NO 22 -0,4 C 1,3 C 0,0 km/h (0 Bft)
09.01.2014 05:45 1,2 C 89 % 1017,9 hPa 0,0 l/m 0,2 km/h (0 Bft) NW 315 -0,4 C 1,4 C 0,0 km/h (0 Bft)
09.01.2014 05:50 0,7 C 89 % 1017,9 hPa 0,0 l/m 0,0 km/h (0 Bft) NW 315 -0,9 C 1,2 C 0,0 km/h (0 Bft)
09.01.2014 05:55 0,9 C 89 % 1017,9 hPa 0,0 l/m 0,0 km/h (0 Bft) N 360 -0,7 C 1,0 C 1,8 km/h (1 Bft)
09.01.2014 06:00 1,1 C 89 % 1017,9 hPa 0,0 l/m 0,3 km/h (0 Bft) N-NO 22 -0,5 C 1,0 C 0,0 km/h (0 Bft)
09.01.2014 06:05 1,2 C 88 % 1018,0 hPa 0,0 l/m 0,3 km/h (0 Bft) NW 315 -0,6 C 0,9 C 1,8 km/h (1 Bft)
09.01.2014 06:10 0,9 C 89 % 1018,0 hPa 0,0 l/m 0,3 km/h (0 Bft) N-NO 22 -0,7 C 0,9 C 0,0 km/h (0 Bft)
09.01.2014 06:15 0,7 C 88 % 1018,0 hPa 0,0 l/m 0,3 km/h (0 Bft) N-NO 22 -1,1 C 0,7 C 0,0 km/h (0 Bft)
09.01.2014 06:20 0,5 C 88 % 1018,0 hPa 0,0 l/m 0,0 km/h (0 Bft) N 360 -1,3 C 0,6 C 0,0 km/h (0 Bft)
09.01.2014 06:25 0,7 C 89 % 1018,2 hPa 0,0 l/m 0,6 km/h (0 Bft) N-NW 337 -0,9 C 0,5 C 0,0 km/h (0 Bft)
09.01.2014 06:30 0,4 C 89 % 1018,2 hPa 0,0 l/m 0,5 km/h (0 Bft) NO 45 -1,2 C 0,4 C 0,0 km/h (0 Bft)
09.01.2014 06:35 0,3 C 89 % 1018,2 hPa 0,0 l/m 0,0 km/h (0 Bft) N-NO 22 -1,3 C 0,4 C 0,0 km/h (0 Bft)
09.01.2014 06:40 0,7 C 89 % 1018,2 hPa 0,0 l/m 0,0 km/h (0 Bft) N-NO 22 -0,9 C 0,5 C 0,0 km/h (0 Bft)
09.01.2014 06:45 0,8 C 89 % 1018,1 hPa 0,0 l/m 0,0 km/h (0 Bft) N-NW 337 -0,8 C 0,6 C 0,0 km/h (0 Bft)
09.01.2014 06:50 0,7 C 89 % 1018,1 hPa 0,0 l/m 0,0 km/h (0 Bft) N 360 -0,9 C 0,9 C 0,0 km/h (0 Bft)
09.01.2014 06:55 0,8 C 89 % 1018,1 hPa 0,0 l/m 0,0 km/h (0 Bft) N-NW 337 -0,8 C 1,0 C 0,0 km/h (0 Bft)
09.01.2014 07:00 0,7 C 89 % 1018,1 hPa 0,0 l/m 0,0 km/h (0 Bft) N-NO 22 -0,9 C 1,0 C 0,0 km/h (0 Bft)
09.01.2014 07:05 0,8 C 89 % 1018,1 hPa 0,0 l/m 0,0 km/h (0 Bft) N 360 -0,8 C 1,1 C 0,0 km/h (0 Bft)
09.01.2014 07:10 0,8 C 89 % 1018,1 hPa 0,0 l/m 0,0 km/h (0 Bft) NO 45 -0,8 C 1,1 C 0,0 km/h (0 Bft)
09.01.2014 07:15 1,4 C 89 % 1018,1 hPa 0,0 l/m 0,0 km/h (0 Bft) NO 45 -0,2 C 1,0 C 0,0 km/h (0 Bft)
09.01.2014 07:20 1,1 C 89 % 1018,1 hPa 0,0 l/m 0,0 km/h (0 Bft) N-NW 337 -0,5 C 1,0 C 0,0 km/h (0 Bft)
09.01.2014 07:25 0,8 C 89 % 1018,2 hPa 0,0 l/m 0,0 km/h (0 Bft) N 360 -0,8 C 1,0 C 0,0 km/h (0 Bft)
09.01.2014 07:30 0,7 C 89 % 1018,2 hPa 0,0 l/m 0,0 km/h (0 Bft) N-NO 22 -0,9 C 1,1 C 0,0 km/h (0 Bft)
09.01.2014 07:35 0,6 C 89 % 1018,2 hPa 0,0 l/m 0,0 km/h (0 Bft) N-NW 337 -1,0 C 1,0 C 0,0 km/h (0 Bft)
09.01.2014 07:40 0,7 C 89 % 1018,2 hPa 0,0 l/m 0,0 km/h (0 Bft) NW 315 -0,9 C 1,0 C 0,0 km/h (0 Bft)
09.01.2014 07:45 0,8 C 89 % 1018,4 hPa 0,0 l/m 0,0 km/h (0 Bft) NO 45 -0,8 C 1,0 C 0,0 km/h (0 Bft)
09.01.2014 07:50 1,4 C 89 % 1018,4 hPa 0,0 l/m 0,0 km/h (0 Bft) N-NO 22 -0,2 C 1,1 C 0,0 km/h (0 Bft)
09.01.2014 07:55 1,2 C 89 % 1018,4 hPa 0,0 l/m 0,0 km/h (0 Bft) N-NW 337 -0,4 C 1,3 C 0,0 km/h (0 Bft)
09.01.2014 08:00 0,9 C 89 % 1018,4 hPa 0,0 l/m 0,0 km/h (0 Bft) N-NW 337 -0,7 C 1,3 C 0,0 km/h (0 Bft)
09.01.2014 08:05 1,0 C 89 % 1018,3 hPa 0,0 l/m 0,0 km/h (0 Bft) N-NW 337 -0,6 C 1,3 C 0,0 km/h (0 Bft)
09.01.2014 08:10 1,0 C 89 % 1018,3 hPa 0,0 l/m 0,0 km/h (0 Bft) N-NW 337 -0,6 C 1,4 C 0,0 km/h (0 Bft)
09.01.2014 08:15 1,0 C 88 % 1018,3 hPa 0,0 l/m 0,0 km/h (0 Bft) N 360 -0,8 C 1,4 C 0,0 km/h (0 Bft)
09.01.2014 08:20 1,1 C 89 % 1018,3 hPa 0,0 l/m 0,0 km/h (0 Bft) N 360 -0,5 C 1,5 C 0,0 km/h (0 Bft)
09.01.2014 08:25 1,3 C 89 % 1018,5 hPa 0,0 l/m 0,0 km/h (0 Bft) N-NO 22 -0,3 C 1,6 C 0,0 km/h (0 Bft)
09.01.2014 08:30 1,3 C 88 % 1018,5 hPa 0,0 l/m 0,0 km/h (0 Bft) N-NW 337 -0,5 C 1,6 C 0,0 km/h (0 Bft)
09.01.2014 08:35 1,3 C 88 % 1018,5 hPa 0,0 l/m 0,0 km/h (0 Bft) N-NW 337 -0,5 C 1,6 C 0,0 km/h (0 Bft)
09.01.2014 08:40 1,3 C 88 % 1018,5 hPa 0,0 l/m 0,0 km/h (0 Bft) N-NO 22 -0,5 C 1,7 C 0,0 km/h (0 Bft)
09.01.2014 08:45 1,6 C 88 % 1018,6 hPa 0,0 l/m 0,0 km/h (0 Bft) NO 45 -0,2 C 1,8 C 0,0 km/h (0 Bft)
09.01.2014 08:50 1,8 C 88 % 1018,6 hPa 0,0 l/m 0,0 km/h (0 Bft) NO 45 0,0 C 2,2 C 0,0 km/h (0 Bft)
09.01.2014 08:55 2,0 C 88 % 1018,6 hPa 0,0 l/m 0,0 km/h (0 Bft) NO 45 0,2 C 2,5 C 0,0 km/h (0 Bft)
09.01.2014 09:00 2,8 C 88 % 1018,6 hPa 0,0 l/m 0,0 km/h (0 Bft) S-SW 202 1,0 C 3,4 C 0,0 km/h (0 Bft)
09.01.2014 09:05 3,1 C 87 % 1018,3 hPa 0,0 l/m 0,6 km/h (0 Bft) W-SW 247 1,2 C 4,1 C 1,8 km/h (1 Bft)
09.01.2014 09:10 3,5 C 86 % 1018,3 hPa 0,0 l/m 0,6 km/h (0 Bft) NO 45 1,4 C 4,4 C 0,0 km/h (0 Bft)
09.01.2014 09:15 3,4 C 85 % 1018,3 hPa 0,0 l/m 0,0 km/h (0 Bft) N 360 1,1 C 4,5 C 0,0 km/h (0 Bft)
09.01.2014 09:20 3,3 C 84 % 1018,3 hPa 0,0 l/m 0,0 km/h (0 Bft) N 360 0,9 C 4,4 C 1,6 km/h (1 Bft)
09.01.2014 09:25 3,1 C 83 % 1018,2 hPa 0,0 l/m 0,0 km/h (0 Bft) N 360 0,5 C 4,3 C 0,0 km/h (0 Bft)
09.01.2014 09:30 3,1 C 82 % 1018,2 hPa 0,0 l/m 0,3 km/h (0 Bft) N-NW 337 0,3 C 4,2 C 1,6 km/h (1 Bft)
09.01.2014 09:35 3,0 C 82 % 1018,2 hPa 0,0 l/m 0,3 km/h (0 Bft) N-NO 22 0,2 C 4,1 C 0,0 km/h (0 Bft)
09.01.2014 09:40 3,6 C 81 % 1018,2 hPa 0,0 l/m 1,1 km/h (1 Bft) NO 45 0,7 C 4,1 C 2,9 km/h (1 Bft)
09.01.2014 09:45 3,4 C 81 % 1018,4 hPa 0,0 l/m 1,0 km/h (0 Bft) NO 45 0,5 C 4,1 C 0,0 km/h (0 Bft)
09.01.2014 09:50 3,5 C 79 % 1018,4 hPa 0,0 l/m 1,0 km/h (0 Bft) NO 45 0,2 C 4,2 C 0,0 km/h (0 Bft)
09.01.2014 09:55 3,4 C 80 % 1018,4 hPa 0,0 l/m 0,8 km/h (0 Bft) NO 45 0,3 C 4,3 C 0,0 km/h (0 Bft)
09.01.2014 10:00 3,4 C 79 % 1018,4 hPa 0,0 l/m 0,5 km/h (0 Bft) NO 45 0,1 C 4,4 C 0,0 km/h (0 Bft)
09.01.2014 10:05 3,6 C 79 % 1018,2 hPa 0,0 l/m 0,5 km/h (0 Bft) NO 45 0,3 C 4,5 C 0,0 km/h (0 Bft)
09.01.2014 10:10 3,9 C 79 % 1018,2 hPa 0,0 l/m 0,0 km/h (0 Bft) NO 45 0,6 C 4,8 C 0,0 km/h (0 Bft)
09.01.2014 10:15 3,8 C 79 % 1018,2 hPa 0,0 l/m 0,0 km/h (0 Bft) NO 45 0,5 C 5,0 C 0,0 km/h (0 Bft)
09.01.2014 10:20 3,7 C 79 % 1018,2 hPa 0,0 l/m 0,0 km/h (0 Bft) NO 45 0,4 C 5,0 C 2,4 km/h (1 Bft)
09.01.2014 10:25 4,0 C 79 % 1018,4 hPa 0,0 l/m 1,6 km/h (1 Bft) SO 135 0,7 C 5,1 C 6,8 km/h (2 Bft)
09.01.2014 10:30 5,3 C 77 % 1018,4 hPa 0,0 l/m 4,8 km/h (1 Bft) O 90 1,6 C 4,9 C 7,4 km/h (2 Bft)
09.01.2014 10:35 6,1 C 74 % 1018,4 hPa 0,0 l/m 6,0 km/h (2 Bft) O 90 1,8 C 5,2 C 6,8 km/h (2 Bft)
09.01.2014 10:40 6,8 C 70 % 1018,4 hPa 0,0 l/m 6,4 km/h (2 Bft) SO 135 1,7 C 6,3 C 10,3 km/h (2 Bft)
09.01.2014 10:45 6,7 C 69 % 1018,2 hPa 0,0 l/m 5,6 km/h (1 Bft) S-SO 157 1,4 C 7,2 C 3,5 km/h (1 Bft)
09.01.2014 10:50 6,2 C 69 % 1018,2 hPa 0,0 l/m 2,4 km/h (1 Bft) O 90 0,9 C 8,0 C 2,1 km/h (1 Bft)
09.01.2014 10:55 6,6 C 69 % 1018,2 hPa 0,0 l/m 2,3 km/h (1 Bft) O-NO 67 1,3 C 8,0 C 4,5 km/h (1 Bft)
09.01.2014 11:00 6,9 C 68 % 1018,2 hPa 0,0 l/m 2,6 km/h (1 Bft) O-SO 112 1,4 C 8,4 C 0,0 km/h (0 Bft)
09.01.2014 11:05 6,8 C 68 % 1017,9 hPa 0,0 l/m 1,8 km/h (1 Bft) S-SO 157 1,3 C 8,6 C 2,3 km/h (1 Bft)
09.01.2014 11:08 6,4 C 69 % 1017,9 hPa 0,0 l/m 0,8 km/h (0 Bft) S-SO 157 1,1 C 8,7 C 0,0 km/h (0 Bft)
09.01.2014 11:10 6,4 C 69 % 1017,9 hPa 0,0 l/m 0,8 km/h (0 Bft) S-SO 157 1,1 C 8,7 C 0,0 km/h (0 Bft)
09.01.2014 11:15 6,4 C 69 % 1017,9 hPa 0,0 l/m 0,6 km/h (0 Bft) S-SO 157 1,1 C 8,8 C 0,0 km/h (0 Bft)
09.01.2014 11:20 7,0 C 69 % 1017,9 hPa 0,0 l/m 0,3 km/h (0 Bft) SO 135 1,7 C 9,2 C 0,0 km/h (0 Bft)
09.01.2014 11:25 7,3 C 69 % 1017,9 hPa 0,0 l/m 0,3 km/h (0 Bft) S-SO 157 2,0 C 9,4 C 0,0 km/h (0 Bft)
09.01.2014 11:30 7,6 C 69 % 1017,9 hPa 0,0 l/m 0,3 km/h (0 Bft) S-SO 157 2,3 C 9,8 C 0,0 km/h (0 Bft)
09.01.2014 11:35 7,8 C 69 % 1017,9 hPa 0,0 l/m 0,3 km/h (0 Bft) S-SO 157 2,5 C 9,9 C 0,0 km/h (0 Bft)
09.01.2014 11:40 7,9 C 70 % 1017,9 hPa 0,0 l/m 0,0 km/h (0 Bft) S-SO 157 2,8 C 10,2 C 0,0 km/h (0 Bft)
09.01.2014 11:45 8,3 C 68 % 1017,7 hPa 0,0 l/m 0,0 km/h (0 Bft) SO 135 2,7 C 10,4 C 0,0 km/h (0 Bft)
09.01.2014 11:50 8,1 C 68 % 1017,7 hPa 0,0 l/m 0,0 km/h (0 Bft) SO 135 2,6 C 10,6 C 0,0 km/h (0 Bft)
09.01.2014 11:55 8,1 C 68 % 1017,7 hPa 0,0 l/m 0,0 km/h (0 Bft) SO 135 2,6 C 10,6 C 0,0 km/h (0 Bft)
09.01.2014 12:00 8,3 C 66 % 1017,7 hPa 0,0 l/m 0,2 km/h (0 Bft) SO 135 2,3 C 10,6 C 2,4 km/h (1 Bft)
09.01.2014 12:05 8,7 C 65 % 1017,6 hPa 0,0 l/m 0,8 km/h (0 Bft) N-NO 22 2,5 C 10,6 C 2,9 km/h (1 Bft)
09.01.2014 12:10 8,5 C 67 % 1017,6 hPa 0,0 l/m 1,4 km/h (1 Bft) N-NO 22 2,7 C 10,7 C 0,0 km/h (0 Bft)
09.01.2014 12:15 8,6 C 68 % 1017,6 hPa 0,0 l/m 0,8 km/h (0 Bft) O-SO 112 3,0 C 10,7 C 0,0 km/h (0 Bft)
09.01.2014 12:20 8,8 C 69 % 1017,6 hPa 0,0 l/m 0,2 km/h (0 Bft) O-SO 112 3,4 C 11,0 C 0,0 km/h (0 Bft)
09.01.2014 12:25 9,0 C 68 % 1017,2 hPa 0,0 l/m 0,3 km/h (0 Bft) O-NO 67 3,4 C 11,1 C 3,2 km/h (1 Bft)
09.01.2014 12:30 9,2 C 67 % 1017,2 hPa 0,0 l/m 0,6 km/h (0 Bft) NO 45 3,4 C 11,2 C 0,0 km/h (0 Bft)
09.01.2014 12:35 9,3 C 68 % 1017,2 hPa 0,0 l/m 0,6 km/h (0 Bft) O-NO 67 3,7 C 11,3 C 0,0 km/h (0 Bft)
09.01.2014 12:40 9,5 C 66 % 1017,2 hPa 0,0 l/m 0,0 km/h (0 Bft) NO 45 3,5 C 11,6 C 0,0 km/h (0 Bft)
09.01.2014 12:45 9,4 C 67 % 1017,1 hPa 0,0 l/m 0,2 km/h (0 Bft) NO 45 3,6 C 11,7 C 0,0 km/h (0 Bft)
09.01.2014 12:50 9,5 C 67 % 1017,1 hPa 0,0 l/m 0,3 km/h (0 Bft) O-NO 67 3,7 C 11,8 C 0,0 km/h (0 Bft)
09.01.2014 12:55 9,6 C 67 % 1017,1 hPa 0,0 l/m 0,5 km/h (0 Bft) O-NO 67 3,8 C 11,9 C 2,1 km/h (1 Bft)
09.01.2014 13:00 9,8 C 67 % 1017,1 hPa 0,0 l/m 0,2 km/h (0 Bft) O-NO 67 4,0 C 12,1 C 0,0 km/h (0 Bft)
09.01.2014 13:05 10,0 C 65 % 1016,8 hPa 0,0 l/m 1,1 km/h (1 Bft) O-NO 67 3,7 C 12,3 C 3,7 km/h (1 Bft)
09.01.2014 13:10 10,2 C 65 % 1016,8 hPa 0,0 l/m 1,1 km/h (1 Bft) O-NO 67 3,9 C 12,6 C 0,0 km/h (0 Bft)
09.01.2014 13:15 10,2 C 64 % 1016,8 hPa 0,0 l/m 0,8 km/h (0 Bft) O-SO 112 3,7 C 12,7 C 1,8 km/h (1 Bft)
09.01.2014 13:20 10,4 C 62 % 1016,8 hPa 0,0 l/m 0,8 km/h (0 Bft) NO 45 3,4 C 12,7 C 0,0 km/h (0 Bft)
09.01.2014 13:25 10,6 C 59 % 1016,4 hPa 0,0 l/m 1,0 km/h (0 Bft) SW 225 2,9 C 12,9 C 0,0 km/h (0 Bft)
09.01.2014 13:30 10,5 C 59 % 1016,4 hPa 0,0 l/m 1,4 km/h (1 Bft) S-SO 157 2,8 C 13,1 C 0,0 km/h (0 Bft)
09.01.2014 13:35 10,6 C 58 % 1016,4 hPa 0,0 l/m 1,6 km/h (1 Bft) O-NO 67 2,7 C 13,1 C 5,0 km/h (1 Bft)
09.01.2014 13:40 10,8 C 55 % 1016,4 hPa 0,0 l/m 2,4 km/h (1 Bft) O-SO 112 2,1 C 13,2 C 12,9 km/h (3 Bft)
09.01.2014 13:45 11,5 C 49 % 1016,4 hPa 0,0 l/m 5,0 km/h (1 Bft) O-SO 112 1,2 C 13,6 C 6,8 km/h (2 Bft)
09.01.2014 13:50 11,4 C 51 % 1016,4 hPa 0,0 l/m 6,1 km/h (2 Bft) S-SW 202 1,6 C 14,3 C 9,5 km/h (2 Bft)
09.01.2014 13:55 11,5 C 49 % 1016,4 hPa 0,0 l/m 5,1 km/h (1 Bft) SO 135 1,2 C 14,6 C 7,4 km/h (2 Bft)
09.01.2014 14:00 11,9 C 46 % 1016,4 hPa 0,0 l/m 6,0 km/h (2 Bft) S-SO 157 0,7 C 14,9 C 5,3 km/h (1 Bft)
09.01.2014 14:05 11,7 C 47 % 1016,2 hPa 0,0 l/m 6,3 km/h (2 Bft) S-SO 157 0,8 C 15,0 C 5,8 km/h (2 Bft)
09.01.2014 14:10 11,6 C 47 % 1016,2 hPa 0,0 l/m 6,0 km/h (2 Bft) S-SO 157 0,7 C 15,1 C 15,6 km/h (3 Bft)
09.01.2014 14:15 12,0 C 46 % 1016,2 hPa 0,0 l/m 6,6 km/h (2 Bft) S-SW 202 0,7 C 15,0 C 6,9 km/h (2 Bft)
09.01.2014 14:20 11,9 C 47 % 1016,2 hPa 0,0 l/m 5,8 km/h (2 Bft) O-SO 112 1,0 C 15,3 C 8,5 km/h (2 Bft)
09.01.2014 14:25 11,9 C 47 % 1016,4 hPa 0,0 l/m 5,1 km/h (1 Bft) SO 135 1,0 C 15,3 C 5,8 km/h (2 Bft)
09.01.2014 14:30 12,6 C 42 % 1016,4 hPa 0,0 l/m 6,3 km/h (2 Bft) S-SO 157 0,0 C 15,2 C 6,0 km/h (2 Bft)
09.01.2014 14:35 12,5 C 42 % 1016,4 hPa 0,0 l/m 6,8 km/h (2 Bft) O-SO 112 -0,1 C 14,8 C 5,8 km/h (2 Bft)
09.01.2014 14:40 12,4 C 41 % 1016,4 hPa 0,0 l/m 5,1 km/h (1 Bft) N-NO 22 -0,5 C 14,8 C 8,2 km/h (2 Bft)
09.01.2014 14:45 12,3 C 42 % 1015,8 hPa 0,0 l/m 4,7 km/h (1 Bft) O 90 -0,2 C 14,8 C 6,4 km/h (2 Bft)
09.01.2014 14:50 12,1 C 41 % 1015,8 hPa 0,0 l/m 5,3 km/h (1 Bft) O-SO 112 -0,7 C 14,7 C 7,1 km/h (2 Bft)
09.01.2014 14:55 12,2 C 41 % 1015,8 hPa 0,0 l/m 5,3 km/h (1 Bft) O-SO 112 -0,7 C 14,5 C 7,4 km/h (2 Bft)
09.01.2014 15:00 12,3 C 40 % 1015,8 hPa 0,0 l/m 6,3 km/h (2 Bft) S-SO 157 -0,9 C 14,3 C 5,1 km/h (1 Bft)
09.01.2014 15:05 12,0 C 41 % 1015,6 hPa 0,0 l/m 6,3 km/h (2 Bft) SO 135 -0,8 C 14,2 C 6,0 km/h (2 Bft)
09.01.2014 15:10 11,8 C 43 % 1015,6 hPa 0,0 l/m 5,3 km/h (1 Bft) SO 135 -0,4 C 13,8 C 4,5 km/h (1 Bft)
09.01.2014 15:15 11,5 C 45 % 1015,6 hPa 0,0 l/m 5,0 km/h (1 Bft) SO 135 -0,0 C 13,8 C 7,4 km/h (2 Bft)
09.01.2014 15:20 11,9 C 43 % 1015,6 hPa 0,0 l/m 5,3 km/h (1 Bft) SO 135 -0,3 C 13,7 C 9,7 km/h (2 Bft)
09.01.2014 15:25 11,9 C 43 % 1015,4 hPa 0,0 l/m 5,8 km/h (2 Bft) O-SO 112 -0,3 C 13,6 C 5,3 km/h (1 Bft)
09.01.2014 15:30 11,4 C 45 % 1015,4 hPa 0,0 l/m 5,0 km/h (1 Bft) O-SO 112 -0,1 C 13,3 C 4,5 km/h (1 Bft)
09.01.2014 15:35 11,6 C 45 % 1015,4 hPa 0,0 l/m 4,5 km/h (1 Bft) O-SO 112 0,1 C 13,0 C 6,4 km/h (2 Bft)
09.01.2014 15:40 11,2 C 46 % 1015,4 hPa 0,0 l/m 4,2 km/h (1 Bft) S 180 0,0 C 12,7 C 2,6 km/h (1 Bft)
09.01.2014 15:45 10,8 C 48 % 1015,4 hPa 0,0 l/m 3,9 km/h (1 Bft) O-SO 112 0,2 C 12,4 C 2,7 km/h (1 Bft)
09.01.2014 15:50 10,6 C 50 % 1015,4 hPa 0,0 l/m 3,5 km/h (1 Bft) O 90 0,6 C 11,8 C 5,6 km/h (1 Bft)
09.01.2014 15:55 10,3 C 51 % 1015,4 hPa 0,0 l/m 3,5 km/h (1 Bft) O-NO 67 0,6 C 11,5 C 6,3 km/h (2 Bft)
09.01.2014 16:00 10,2 C 50 % 1015,4 hPa 0,0 l/m 3,9 km/h (1 Bft) O-SO 112 0,3 C 11,0 C 5,3 km/h (1 Bft)
09.01.2014 16:03 10,0 C 51 % 1015,2 hPa 0,0 l/m 4,0 km/h (1 Bft) O-SO 112 0,3 C 10,7 C 5,0 km/h (1 Bft)
09.01.2014 16:05 10,0 C 51 % 1015,2 hPa 0,0 l/m 4,0 km/h (1 Bft) O-SO 112 0,3 C 10,7 C 5,0 km/h (1 Bft)
09.01.2014 16:10 9,1 C 53 % 1015,2 hPa 0,0 l/m 2,9 km/h (1 Bft) O-SO 112 0,0 C 10,2 C 1,9 km/h (1 Bft)
09.01.2014 16:15 8,7 C 55 % 1015,2 hPa 0,0 l/m 2,7 km/h (1 Bft) O-SO 112 0,2 C 9,9 C 7,7 km/h (2 Bft)
09.01.2014 16:20 9,4 C 55 % 1015,2 hPa 0,0 l/m 4,7 km/h (1 Bft) N-NO 22 0,8 C 9,9 C 5,8 km/h (2 Bft)
09.01.2014 16:25 9,1 C 55 % 1014,9 hPa 0,0 l/m 5,3 km/h (1 Bft) O-SO 112 0,5 C 9,7 C 5,1 km/h (1 Bft)
09.01.2014 16:30 8,9 C 56 % 1014,9 hPa 0,0 l/m 2,7 km/h (1 Bft) NO 45 0,6 C 9,5 C 6,0 km/h (2 Bft)
09.01.2014 16:35 9,0 C 56 % 1014,9 hPa 0,0 l/m 2,7 km/h (1 Bft) O 90 0,7 C 9,3 C 4,5 km/h (1 Bft)
09.01.2014 16:40 7,5 C 58 % 1014,9 hPa 0,0 l/m 3,4 km/h (1 Bft) O-NO 67 -0,2 C 8,8 C 2,4 km/h (1 Bft)
09.01.2014 16:45 7,2 C 58 % 1014,6 hPa 0,0 l/m 1,8 km/h (1 Bft) O-NO 67 -0,5 C 8,3 C 1,9 km/h (1 Bft)
09.01.2014 16:50 6,7 C 59 % 1014,6 hPa 0,0 l/m 0,3 km/h (0 Bft) O-NO 67 -0,7 C 7,8 C 0,0 km/h (0 Bft)
09.01.2014 16:55 6,6 C 59 % 1014,6 hPa 0,0 l/m 0,3 km/h (0 Bft) O-NO 67 -0,8 C 7,4 C 0,0 km/h (0 Bft)
09.01.2014 17:00 6,6 C 60 % 1014,6 hPa 0,0 l/m 0,8 km/h (0 Bft) O-SO 112 -0,6 C 7,1 C 3,4 km/h (1 Bft)
09.01.2014 17:05 6,3 C 60 % 1014,8 hPa 0,0 l/m 1,0 km/h (0 Bft) O-NO 67 -0,9 C 6,8 C 3,5 km/h (1 Bft)
09.01.2014 17:10 6,1 C 60 % 1014,8 hPa 0,0 l/m 1,3 km/h (1 Bft) O-SO 112 -1,1 C 6,5 C 0,0 km/h (0 Bft)
09.01.2014 17:15 5,6 C 62 % 1014,8 hPa 0,0 l/m 1,3 km/h (1 Bft) O-NO 67 -1,1 C 6,2 C 0,0 km/h (0 Bft)
09.01.2014 17:20 6,6 C 60 % 1014,8 hPa 0,0 l/m 1,8 km/h (1 Bft) O 90 -0,6 C 6,0 C 4,8 km/h (1 Bft)
09.01.2014 17:25 6,0 C 60 % 1014,9 hPa 0,0 l/m 1,8 km/h (1 Bft) O 90 -1,2 C 5,8 C 0,0 km/h (0 Bft)
09.01.2014 17:30 5,5 C 63 % 1014,9 hPa 0,0 l/m 1,4 km/h (1 Bft) O-NO 67 -1,0 C 5,5 C 6,0 km/h (2 Bft)
09.01.2014 17:35 6,2 C 60 % 1014,9 hPa 0,0 l/m 2,1 km/h (1 Bft) S-SW 202 -1,0 C 5,6 C 2,9 km/h (1 Bft)
09.01.2014 17:40 5,1 C 64 % 1014,9 hPa 0,0 l/m 2,7 km/h (1 Bft) O-NO 67 -1,1 C 5,4 C 6,1 km/h (2 Bft)
09.01.2014 17:45 7,1 C 60 % 1014,6 hPa 0,0 l/m 3,1 km/h (1 Bft) NO 45 -0,1 C 5,5 C 0,0 km/h (0 Bft)
09.01.2014 17:50 6,4 C 59 % 1014,6 hPa 0,0 l/m 4,2 km/h (1 Bft) O-SO 112 -1,0 C 5,6 C 3,4 km/h (1 Bft)
09.01.2014 17:55 7,2 C 58 % 1014,6 hPa 0,0 l/m 4,2 km/h (1 Bft) O 90 -0,5 C 5,3 C 7,9 km/h (2 Bft)
09.01.2014 18:00 7,8 C 57 % 1014,6 hPa 0,0 l/m 4,8 km/h (1 Bft) O-SO 112 -0,2 C 5,8 C 6,0 km/h (2 Bft)
09.01.2014 18:05 7,7 C 57 % 1014,5 hPa 0,0 l/m 5,8 km/h (2 Bft) O 90 -0,3 C 6,3 C 6,8 km/h (2 Bft)
09.01.2014 18:10 7,7 C 56 % 1014,5 hPa 0,0 l/m 7,1 km/h (2 Bft) O 90 -0,5 C 6,0 C 8,7 km/h (2 Bft)
09.01.2014 18:15 8,0 C 55 % 1014,5 hPa 0,0 l/m 7,7 km/h (2 Bft) O 90 -0,5 C 6,1 C 9,5 km/h (2 Bft)
09.01.2014 18:20 8,2 C 54 % 1014,5 hPa 0,0 l/m 8,2 km/h (2 Bft) O-NO 67 -0,5 C 6,1 C 11,1 km/h (2 Bft)
09.01.2014 18:25 8,9 C 50 % 1014,4 hPa 0,0 l/m 8,4 km/h (2 Bft) O-SO 112 -0,9 C 6,6 C 10,1 km/h (2 Bft)
09.01.2014 18:30 9,3 C 48 % 1014,4 hPa 0,0 l/m 8,9 km/h (2 Bft) O-SO 112 -1,1 C 6,9 C 7,4 km/h (2 Bft)
09.01.2014 18:35 9,3 C 47 % 1014,4 hPa 0,0 l/m 8,5 km/h (2 Bft) O-SO 112 -1,4 C 7,3 C 9,2 km/h (2 Bft)
09.01.2014 18:40 9,8 C 46 % 1014,4 hPa 0,0 l/m 7,6 km/h (2 Bft) S-SO 157 -1,3 C 8,3 C 7,2 km/h (2 Bft)
09.01.2014 18:45 10,1 C 45 % 1014,4 hPa 0,0 l/m 6,9 km/h (2 Bft) O 90 -1,3 C 9,2 C 7,6 km/h (2 Bft)
09.01.2014 18:50 10,1 C 44 % 1014,4 hPa 0,0 l/m 6,8 km/h (2 Bft) O-SO 112 -1,6 C 9,4 C 7,2 km/h (2 Bft)
09.01.2014 18:55 10,2 C 44 % 1014,4 hPa 0,0 l/m 6,8 km/h (2 Bft) S 180 -1,5 C 9,3 C 6,4 km/h (2 Bft)
09.01.2014 19:00 10,4 C 43 % 1014,4 hPa 0,0 l/m 6,3 km/h (2 Bft) O-SO 112 -1,6 C 9,7 C 7,2 km/h (2 Bft)
09.01.2014 19:05 10,2 C 42 % 1014,3 hPa 0,0 l/m 6,3 km/h (2 Bft) O-SO 112 -2,1 C 9,9 C 6,8 km/h (2 Bft)
09.01.2014 19:10 10,5 C 42 % 1014,3 hPa 0,0 l/m 6,1 km/h (2 Bft) O-SO 112 -1,9 C 10,0 C 6,3 km/h (2 Bft)
09.01.2014 19:15 10,1 C 43 % 1014,3 hPa 0,0 l/m 6,1 km/h (2 Bft) S-SO 157 -1,9 C 10,0 C 10,1 km/h (2 Bft)
09.01.2014 19:20 9,6 C 45 % 1014,3 hPa 0,0 l/m 7,4 km/h (2 Bft) S 180 -1,7 C 9,2 C 13,8 km/h (3 Bft)
09.01.2014 19:25 9,3 C 46 % 1014,4 hPa 0,0 l/m 8,4 km/h (2 Bft) S-SO 157 -1,7 C 8,4 C 10,3 km/h (2 Bft)
09.01.2014 19:30 9,1 C 47 % 1014,4 hPa 0,0 l/m 9,8 km/h (2 Bft) S-SO 157 -1,6 C 7,5 C 18,7 km/h (3 Bft)
09.01.2014 19:35 9,7 C 46 % 1014,4 hPa 0,0 l/m 9,8 km/h (2 Bft) S 180 -1,3 C 7,8 C 11,1 km/h (2 Bft)
09.01.2014 19:40 9,9 C 46 % 1014,4 hPa 0,0 l/m 10,8 km/h (2 Bft) SO 135 -1,2 C 7,5 C 22,7 km/h (4 Bft)
09.01.2014 19:45 10,0 C 45 % 1014,3 hPa 0,0 l/m 11,3 km/h (2 Bft) S-SW 202 -1,4 C 7,2 C 12,7 km/h (3 Bft)
09.01.2014 19:50 10,6 C 43 % 1014,3 hPa 0,0 l/m 13,2 km/h (3 Bft) S 180 -1,4 C 6,4 C 25,6 km/h (4 Bft)
09.01.2014 19:55 10,5 C 43 % 1014,3 hPa 0,0 l/m 13,4 km/h (3 Bft) S-SO 157 -1,5 C 6,5 C 20,1 km/h (4 Bft)
09.01.2014 20:00 10,4 C 43 % 1014,3 hPa 0,0 l/m 13,0 km/h (3 Bft) S-SO 157 -1,6 C 6,8 C 14,8 km/h (3 Bft)
09.01.2014 20:05 10,1 C 44 % 1014,1 hPa 0,0 l/m 11,6 km/h (2 Bft) SW 225 -1,6 C 7,6 C 9,7 km/h (2 Bft)
09.01.2014 20:10 10,3 C 44 % 1014,1 hPa 0,0 l/m 10,5 km/h (2 Bft) S 180 -1,4 C 8,2 C 9,8 km/h (2 Bft)
09.01.2014 20:15 10,0 C 45 % 1014,1 hPa 0,0 l/m 10,1 km/h (2 Bft) S 180 -1,4 C 8,4 C 9,5 km/h (2 Bft)
09.01.2014 20:20 10,0 C 45 % 1014,1 hPa 0,0 l/m 8,9 km/h (2 Bft) SO 135 -1,4 C 9,2 C 10,3 km/h (2 Bft)
09.01.2014 20:25 10,3 C 44 % 1014,2 hPa 0,0 l/m 9,5 km/h (2 Bft) S-SO 157 -1,4 C 8,8 C 11,4 km/h (2 Bft)
09.01.2014 20:30 10,5 C 44 % 1014,2 hPa 0,0 l/m 9,7 km/h (2 Bft) S-SO 157 -1,2 C 9,0 C 13,7 km/h (3 Bft)
09.01.2014 20:35 10,6 C 43 % 1014,2 hPa 0,0 l/m 9,8 km/h (2 Bft) S 180 -1,4 C 8,9 C 18,8 km/h (3 Bft)
09.01.2014 20:40 10,7 C 43 % 1014,2 hPa 0,0 l/m 11,4 km/h (2 Bft) S 180 -1,4 C 8,1 C 15,0 km/h (3 Bft)
09.01.2014 20:45 10,6 C 43 % 1014,2 hPa 0,0 l/m 11,3 km/h (2 Bft) S 180 -1,4 C 8,1 C 13,5 km/h (3 Bft)
09.01.2014 20:50 10,7 C 43 % 1014,2 hPa 0,0 l/m 11,1 km/h (2 Bft) S 180 -1,4 C 8,2 C 20,8 km/h (4 Bft)
09.01.2014 20:55 10,8 C 43 % 1014,2 hPa 0,0 l/m 11,7 km/h (2 Bft) SW 225 -1,3 C 7,9 C 20,4 km/h (4 Bft)
09.01.2014 21:00 10,8 C 43 % 1014,2 hPa 0,0 l/m 12,4 km/h (3 Bft) S-SO 157 -1,3 C 7,7 C 18,5 km/h (3 Bft)
09.01.2014 21:03 10,9 C 42 % 1014,1 hPa 0,0 l/m 12,9 km/h (3 Bft) S 180 -1,5 C 7,1 C 25,3 km/h (4 Bft)
09.01.2014 21:05 10,9 C 42 % 1014,1 hPa 0,0 l/m 12,9 km/h (3 Bft) S 180 -1,5 C 7,1 C 25,3 km/h (4 Bft)
09.01.2014 21:10 11,2 C 42 % 1014,1 hPa 0,0 l/m 16,7 km/h (3 Bft) O-SO 112 -1,2 C 5,4 C 33,6 km/h (5 Bft)
09.01.2014 21:15 11,2 C 43 % 1014,1 hPa 0,0 l/m 18,7 km/h (3 Bft) S 180 -0,9 C 4,9 C 20,1 km/h (4 Bft)
09.01.2014 21:20 11,1 C 43 % 1014,1 hPa 0,0 l/m 18,0 km/h (3 Bft) S-SW 202 -1,0 C 5,1 C 34,1 km/h (5 Bft)
09.01.2014 21:25 11,0 C 44 % 1014,1 hPa 0,0 l/m 17,1 km/h (3 Bft) S 180 -0,8 C 5,3 C 18,2 km/h (3 Bft)
09.01.2014 21:30 10,8 C 45 % 1014,1 hPa 0,0 l/m 14,2 km/h (3 Bft) S 180 -0,6 C 6,4 C 12,4 km/h (3 Bft)
09.01.2014 21:35 10,7 C 45 % 1014,1 hPa 0,0 l/m 14,0 km/h (3 Bft) SO 135 -0,7 C 6,4 C 19,0 km/h (3 Bft)
09.01.2014 21:40 11,0 C 46 % 1014,1 hPa 0,0 l/m 15,8 km/h (3 Bft) S-SW 202 -0,2 C 5,5 C 26,9 km/h (4 Bft)
09.01.2014 21:45 11,2 C 46 % 1014,1 hPa 0,0 l/m 18,0 km/h (3 Bft) S-SO 157 0,0 C 4,5 C 21,2 km/h (4 Bft)
09.01.2014 21:50 11,2 C 47 % 1014,1 hPa 0,0 l/m 19,2 km/h (3 Bft) S 180 0,3 C 4,1 C 34,9 km/h (5 Bft)
09.01.2014 21:55 11,1 C 48 % 1014,1 hPa 0,0 l/m 18,0 km/h (3 Bft) S-SO 157 0,5 C 4,7 C 31,4 km/h (5 Bft)
09.01.2014 22:00 11,0 C 49 % 1014,1 hPa 0,0 l/m 17,1 km/h (3 Bft) S-SO 157 0,7 C 5,0 C 16,4 km/h (3 Bft)
09.01.2014 22:05 10,8 C 50 % 1014,1 hPa 0,0 l/m 15,9 km/h (3 Bft) S 180 0,8 C 5,5 C 24,9 km/h (4 Bft)
09.01.2014 22:10 11,0 C 50 % 1014,1 hPa 0,0 l/m 14,6 km/h (3 Bft) S-SW 202 1,0 C 6,1 C 15,0 km/h (3 Bft)
09.01.2014 22:15 10,8 C 51 % 1014,1 hPa 0,0 l/m 14,8 km/h (3 Bft) S-SO 157 1,1 C 6,1 C 15,3 km/h (3 Bft)
09.01.2014 22:20 11,0 C 51 % 1014,1 hPa 0,0 l/m 16,4 km/h (3 Bft) S 180 1,3 C 4,9 C 27,2 km/h (4 Bft)
09.01.2014 22:25 10,8 C 51 % 1014,2 hPa 0,0 l/m 16,3 km/h (3 Bft) SO 135 1,1 C 5,2 C 21,1 km/h (4 Bft)
09.01.2014 22:30 10,9 C 51 % 1014,2 hPa 0,0 l/m 17,4 km/h (3 Bft) S-SW 202 1,2 C 4,7 C 11,7 km/h (2 Bft)
09.01.2014 22:35 10,8 C 51 % 1014,2 hPa 0,0 l/m 15,8 km/h (3 Bft) W-SW 247 1,1 C 5,3 C 19,0 km/h (3 Bft)
09.01.2014 22:40 10,6 C 52 % 1014,2 hPa 0,0 l/m 13,0 km/h (3 Bft) S-SW 202 1,2 C 6,7 C 10,9 km/h (2 Bft)
09.01.2014 22:45 10,4 C 53 % 1014,1 hPa 0,0 l/m 11,7 km/h (2 Bft) S-SO 157 1,2 C 7,2 C 18,2 km/h (3 Bft)
09.01.2014 22:50 10,3 C 53 % 1014,1 hPa 0,0 l/m 9,8 km/h (2 Bft) S-SW 202 1,1 C 8,4 C 11,7 km/h (2 Bft)
09.01.2014 22:55 10,0 C 54 % 1014,1 hPa 0,0 l/m 10,1 km/h (2 Bft) S 180 1,1 C 7,9 C 9,8 km/h (2 Bft)
09.01.2014 23:00 10,1 C 54 % 1014,1 hPa 0,0 l/m 10,8 km/h (2 Bft) S 180 1,2 C 6,9 C 9,8 km/h (2 Bft)
09.01.2014 23:05 9,8 C 54 % 1014,2 hPa 0,0 l/m 10,8 km/h (2 Bft) S 180 0,9 C 6,8 C 12,4 km/h (3 Bft)
09.01.2014 23:10 9,6 C 53 % 1014,2 hPa 0,0 l/m 11,6 km/h (2 Bft) S-SW 202 0,5 C 5,9 C 20,4 km/h (4 Bft)
09.01.2014 23:15 9,6 C 53 % 1014,2 hPa 0,0 l/m 12,1 km/h (2 Bft) S 180 0,5 C 5,4 C 13,4 km/h (3 Bft)
09.01.2014 23:20 9,4 C 54 % 1014,2 hPa 0,0 l/m 12,9 km/h (3 Bft) S 180 0,6 C 4,6 C 29,9 km/h (5 Bft)
09.01.2014 23:25 9,4 C 54 % 1014,6 hPa 0,0 l/m 13,8 km/h (3 Bft) S 180 0,6 C 3,8 C 19,8 km/h (3 Bft)
09.01.2014 23:30 9,1 C 55 % 1014,6 hPa 0,0 l/m 14,5 km/h (3 Bft) S 180 0,5 C 3,2 C 21,7 km/h (4 Bft)
09.01.2014 23:35 9,2 C 56 % 1014,6 hPa 0,0 l/m 15,6 km/h (3 Bft) S-SW 202 0,9 C 2,3 C 24,1 km/h (4 Bft)
09.01.2014 23:40 9,0 C 57 % 1014,6 hPa 0,0 l/m 17,7 km/h (3 Bft) S 180 0,9 C 1,1 C 29,5 km/h (5 Bft)
09.01.2014 23:45 8,9 C 58 % 1014,9 hPa 0,0 l/m 17,2 km/h (3 Bft) S-SW 202 1,1 C 1,1 C 11,4 km/h (2 Bft)
09.01.2014 23:50 8,6 C 60 % 1014,9 hPa 0,0 l/m 16,6 km/h (3 Bft) SO 135 1,3 C 1,0 C 21,9 km/h (4 Bft)
09.01.2014 23:55 8,5 C 60 % 1014,9 hPa 0,0 l/m 16,4 km/h (3 Bft) S-SO 157 1,2 C 1,0 C 33,6 km/h (5 Bft)
_ Min-Zeit 04:20 15:00 23:00 - 12:40 - - 19:05 03:55 17:45
Minimum _ -0,1 C 40 % 1014,1 hPa - 0,0 km/h (0 Bft) - - -2,1 C 0,1 C 0,0 km/h (0 Bft)
_ Max-Zeit 14:30 01:40 00:20 23:55 21:50 - - 13:00 14:25 21:50
Maximum _ 12,6 C 92 % 1021,1 hPa 0,0 l/m 19,2 km/h
S (3 Bft)
- - 4,0 C 15,3 C 34,9 km/h
S (5 Bft)
Durchschnitt _ 5,9 C 69 % 1017,1 hPa #0,0 l/m 4,0 km/h (1 Bft) O-SO - 0,1 C 5,6 C 5,4 km/h (1 Bft)